Smyrna, TN (MQY)

CessnaPCRedbird FMX


Wings of Eagles Aviation started in Smyrna (MQY) in 1998 as a small flight school. The Smyrna Airport is the third largest airport in the state of Tennessee and the busiest general aviation airport. With its longest runway being just over 8,000 feet and having its own air traffic control tower, this is the best possible training environment for all pilots. Once you learn how to fly here, you will be confident no matter where your aviation adventures take you.

Address:
276 Doug Warpoole Rd.
Smyrna, TN 37167

Phone: (615) 355-0033

Business Hours:
Monday-Sunday 7a-10p


NOAA Weather – KMQY

Smyrna, TN

Last Updated on Nov 26 2014, 1:56 am CST

Current Conditions: Fair

NOAA Icon

Temp: 31°F

Wind: North at 0mph

Humidity: 85%

Dewpoint: 27.1°F

Your 5-Day Forecast at a Glance

Available data for KMQY from the past hour

METAR
KMQY 260756Z AUTO 00000KT 10SM CLR M01/M03 A3013 RMK AO2 T10051027 SLP215